• In Deutschland
  • Länderverzeichnis
  • Für 7 Tage
  • Wassertemperatur
  • Satellitenkarten
  • Wetterkarte
  • Widgets
  • user-avatar
    Anmelden

    Stündliche Wetter Eisenstadt

    Heute, 26 Juli, Mittwoch

    Zeit Temperatur Niederschläge Wind Luftdruck Luftfeuchtigkeit
    00:00 +14°C° 0 mm 2 m/S 716 mmHg 73%
    01:00 +13°C° 0 mm 2 m/S 716 mmHg 75%
    02:00 +13°C° 0 mm 2 m/S 716 mmHg 77%
    03:00 +12°C° 0 mm 1 m/S 716 mmHg 79%
    04:00 +12°C° 0 mm 1 m/S 715 mmHg 81%
    05:00 +13°C° 0 mm 1 m/S 716 mmHg 77%
    06:00 +14°C° 0 mm 2 m/S 716 mmHg 72%
    07:00 +16°C° 0 mm 2 m/S 716 mmHg 68%
    08:00 +17°C° 0,1 mm 2 m/S 716 mmHg 66%
    09:00 +18°C° 0,1 mm 2 m/S 716 mmHg 63%
    10:00 +19°C° 0,1 mm 3 m/S 716 mmHg 61%
    11:00 +20°C° 0,1 mm 3 m/S 716 mmHg 58%
    12:00 +20°C° 0,1 mm 3 m/S 716 mmHg 55%
    13:00 +21°C° 0,1 mm 3 m/S 716 mmHg 53%
    14:00 +20°C° 0,4 mm 3 m/S 716 mmHg 57%
    15:00 +19°C° 0,4 mm 4 m/S 716 mmHg 61%
    16:00 +18°C° 0,4 mm 4 m/S 716 mmHg 66%
    17:00 +18°C° 0,1 mm 4 m/S 716 mmHg 67%
    18:00 +17°C° 0,1 mm 3 m/S 717 mmHg 69%
    19:00 +16°C° 0,1 mm 3 m/S 717 mmHg 71%
    20:00 +14°C° 0 mm 3 m/S 717 mmHg 74%
    21:00 +13°C° 0 mm 3 m/S 718 mmHg 77%
    22:00 +12°C° 0 mm 3 m/S 718 mmHg 80%
    23:00 +12°C° 0,1 mm 3 m/S 718 mmHg 81%

    Morgen, 27 Juli, Donnerstag

    Zeit Temperatur Niederschläge Wind Luftdruck Luftfeuchtigkeit
    00:00 +13°C° 0,1 mm 2 m/S 718 mmHg 81%
    01:00 +13°C° 0,1 mm 2 m/S 718 mmHg 82%
    02:00 +13°C° 0,4 mm 2 m/S 718 mmHg 84%
    03:00 +13°C° 0,4 mm 2 m/S 718 mmHg 86%
    04:00 +13°C° 0,4 mm 2 m/S 718 mmHg 88%
    05:00 +12°C° 0,6 mm 3 m/S 718 mmHg 89%
    06:00 +13°C° 0,6 mm 3 m/S 718 mmHg 89%
    07:00 +13°C° 0,6 mm 3 m/S 719 mmHg 90%
    08:00 +14°C° 0,2 mm 3 m/S 719 mmHg 86%
    09:00 +16°C° 0,2 mm 3 m/S 719 mmHg 82%
    10:00 +17°C° 0,2 mm 3 m/S 719 mmHg 78%
    11:00 +19°C° 0,2 mm 3 m/S 719 mmHg 70%
    12:00 +21°C° 0,2 mm 3 m/S 719 mmHg 61%
    13:00 +22°C° 0,2 mm 3 m/S 719 mmHg 52%
    14:00 +24°C° 0 mm 3 m/S 719 mmHg 51%
    15:00 +24°C° 0 mm 3 m/S 719 mmHg 50%
    16:00 +25°C° 0 mm 3 m/S 719 mmHg 49%
    17:00 +22°C° 0 mm 3 m/S 719 mmHg 55%
    18:00 +21°C° 0 mm 3 m/S 719 mmHg 60%
    19:00 +19°C° 0 mm 3 m/S 719 mmHg 65%
    20:00 +18°C° 0 mm 2 m/S 719 mmHg 68%
    21:00 +18°C° 0 mm 2 m/S 720 mmHg 72%
    22:00 +17°C° 0 mm 2 m/S 720 mmHg 75%
    23:00 +16°C° 0,3 mm 2 m/S 720 mmHg 77%

    übermorgen, 28 Juli, Freitag

    Zeit Temperatur Niederschläge Wind Luftdruck Luftfeuchtigkeit
    00:00 +16°C° 0,3 mm 1 m/S 720 mmHg 79%
    01:00 +16°C° 0,3 mm 1 m/S 720 mmHg 82%
    02:00 +16°C° 0,1 mm 1 m/S 720 mmHg 83%
    03:00 +15°C° 0,1 mm 1 m/S 720 mmHg 85%
    04:00 +15°C° 0,1 mm 1 m/S 720 mmHg 87%
    05:00 +16°C° 0,2 mm 1 m/S 721 mmHg 83%
    06:00 +18°C° 0,2 mm 1 m/S 721 mmHg 80%
    07:00 +19°C° 0,2 mm 1 m/S 721 mmHg 77%
    08:00 +21°C° 0,2 mm 1 m/S 721 mmHg 74%
    09:00 +21°C° 0,2 mm 2 m/S 722 mmHg 70%
    10:00 +23°C° 0,2 mm 2 m/S 722 mmHg 67%
    11:00 +24°C° 0,4 mm 2 m/S 722 mmHg 63%
    12:00 +25°C° 0,4 mm 2 m/S 722 mmHg 59%
    13:00 +26°C° 0,4 mm 2 m/S 722 mmHg 55%
    14:00 +25°C° 0,7 mm 2 m/S 721 mmHg 59%
    15:00 +24°C° 0,7 mm 2 m/S 721 mmHg 63%
    16:00 +24°C° 0,7 mm 2 m/S 721 mmHg 67%
    17:00 +23°C° 0,1 mm 2 m/S 721 mmHg 69%
    18:00 +21°C° 0,1 mm 2 m/S 722 mmHg 72%
    19:00 +20°C° 0,1 mm 3 m/S 722 mmHg 74%
    20:00 +20°C° 0 mm 2 m/S 723 mmHg 76%
    21:00 +19°C° 0 mm 2 m/S 723 mmHg 77%
    22:00 +18°C° 0 mm 2 m/S 724 mmHg 78%
    23:00 +18°C° 0 mm 2 m/S 724 mmHg 80%

    29 Juli, Samstag

    Zeit Temperatur Niederschläge Wind Luftdruck Luftfeuchtigkeit
    00:00 +17°C° 0 mm 2 m/S 724 mmHg 81%
    01:00 +17°C° 0 mm 2 m/S 724 mmHg 82%
    02:00 +16°C° 0 mm 1 m/S 724 mmHg 84%
    03:00 +16°C° 0 mm 1 m/S 724 mmHg 85%
    04:00 +15°C° 0 mm 1 m/S 724 mmHg 87%
    05:00 +18°C° 0 mm 1 m/S 724 mmHg 81%
    06:00 +19°C° 0 mm 1 m/S 725 mmHg 76%
    07:00 +21°C° 0 mm 1 m/S 725 mmHg 71%
    08:00 +23°C° 0 mm 1 m/S 725 mmHg 64%
    09:00 +25°C° 0 mm 2 m/S 725 mmHg 57%
    10:00 +26°C° 0 mm 3 m/S 726 mmHg 50%
    11:00 +28°C° 0 mm 3 m/S 725 mmHg 47%
    12:00 +29°C° 0 mm 3 m/S 725 mmHg 44%
    13:00 +30°C° 0 mm 3 m/S 725 mmHg 40%
    14:00 +30°C° 0,1 mm 3 m/S 725 mmHg 44%
    15:00 +29°C° 0,1 mm 2 m/S 725 mmHg 47%
    16:00 +28°C° 0,1 mm 2 m/S 724 mmHg 51%
    17:00 +27°C° 0,1 mm 2 m/S 724 mmHg 57%
    18:00 +25°C° 0,1 mm 2 m/S 724 mmHg 63%
    19:00 +23°C° 0,1 mm 2 m/S 724 mmHg 69%
    20:00 +21°C° 0,5 mm 2 m/S 724 mmHg 72%
    21:00 +20°C° 0,5 mm 2 m/S 724 mmHg 75%
    22:00 +19°C° 0,5 mm 2 m/S 725 mmHg 78%
    23:00 +19°C° 1,1 mm 2 m/S 725 mmHg 81%

    30 Juli, Sonntag

    Zeit Temperatur Niederschläge Wind Luftdruck Luftfeuchtigkeit
    00:00 +19°C° 1,1 mm 2 m/S 725 mmHg 85%
    01:00 +18°C° 1,1 mm 2 m/S 725 mmHg 88%
    02:00 +18°C° 0,2 mm 2 m/S 724 mmHg 90%
    03:00 +19°C° 0,2 mm 1 m/S 724 mmHg 92%
    04:00 +18°C° 0,2 mm 1 m/S 724 mmHg 93%
    05:00 +19°C° 0 mm 1 m/S 724 mmHg 90%
    06:00 +20°C° 0 mm 1 m/S 724 mmHg 87%
    07:00 +21°C° 0 mm 1 m/S 724 mmHg 83%
    08:00 +23°C° 0 mm 1 m/S 724 mmHg 75%
    09:00 +25°C° 0 mm 1 m/S 724 mmHg 66%
    10:00 +27°C° 0 mm 1 m/S 724 mmHg 57%
    11:00 +28°C° 0 mm 1 m/S 724 mmHg 54%
    12:00 +29°C° 0 mm 2 m/S 724 mmHg 50%
    13:00 +30°C° 0 mm 2 m/S 723 mmHg 46%
    14:00 +31°C° 0 mm 2 m/S 723 mmHg 46%
    15:00 +31°C° 0 mm 2 m/S 723 mmHg 45%
    16:00 +31°C° 0 mm 2 m/S 723 mmHg 44%
    17:00 +30°C° 0 mm 2 m/S 723 mmHg 50%
    18:00 +28°C° 0 mm 1 m/S 722 mmHg 56%
    19:00 +27°C° 0 mm 1 m/S 722 mmHg 62%
    20:00 +25°C° 0 mm 1 m/S 723 mmHg 65%
    21:00 +24°C° 0 mm 1 m/S 723 mmHg 68%
    22:00 +23°C° 0 mm 1 m/S 723 mmHg 71%
    23:00 +23°C° 0 mm 1 m/S 723 mmHg 72%

    31 Juli, Montag

    Zeit Temperatur Niederschläge Wind Luftdruck Luftfeuchtigkeit
    00:00 +22°C° 0 mm 1 m/S 723 mmHg 73%
    01:00 +22°C° 0 mm 1 m/S 723 mmHg 73%
    02:00 +22°C° 0 mm 1 m/S 723 mmHg 73%
    03:00 +21°C° 0 mm 1 m/S 724 mmHg 73%
    04:00 +21°C° 0 mm 1 m/S 724 mmHg 73%
    05:00 +22°C° 0 mm 1 m/S 724 mmHg 69%
    06:00 +22°C° 0 mm 0 m/S 724 mmHg 65%
    07:00 +24°C° 0 mm 0 m/S 725 mmHg 61%
    08:00 +27°C° 0 mm 1 m/S 725 mmHg 55%
    09:00 +29°C° 0 mm 1 m/S 725 mmHg 48%
    10:00 +31°C° 0 mm 2 m/S 725 mmHg 42%
    11:00 +32°C° 0 mm 2 m/S 725 mmHg 39%
    12:00 +34°C° 0 mm 3 m/S 725 mmHg 35%
    13:00 +36°C° 0 mm 3 m/S 724 mmHg 32%
    14:00 +36°C° 0 mm 3 m/S 724 mmHg 32%
    15:00 +36°C° 0 mm 4 m/S 724 mmHg 31%
    16:00 +36°C° 0 mm 4 m/S 724 mmHg 31%
    17:00 +34°C° 0 mm 3 m/S 723 mmHg 38%
    18:00 +31°C° 0 mm 3 m/S 723 mmHg 45%
    19:00 +29°C° 0 mm 2 m/S 723 mmHg 51%
    20:00 +28°C° 0 mm 2 m/S 723 mmHg 54%
    21:00 +27°C° 0 mm 2 m/S 723 mmHg 57%
    22:00 +26°C° 0 mm 2 m/S 723 mmHg 60%
    23:00 +25°C° 0 mm 2 m/S 723 mmHg 61%
    Mehr zeigen